SCP
0 0 0 0 0 0 0 0 0 0 0 0 0 0 0 0 0 0 0 0 0 0 0 0 0 0 0 0 0 0 0 0 0 0 0 0 0 0 0 0 0 0 0 0
0 0 0 0 0 0 0 0 0 0 0 0 0 0 0 0 -0 0 0 0 0 0 0 0 0 0 0 0 0 0 0 0 0 0 0 0 0 0 0 0 0 0 0 0
0 0 0 0 0 0 0 0 0 0 0 0 0 -0 0 0 0 0 0 0 0 0 0 0 0 0 0 0 0 0 0 0 0 0 0 0 0 0 0 0 0 0 0 0
0 0 0 0 0 0 0 0 0 0 0 0 0 -0 -0 0 0 0 0 0 0 0 0 0 0 0 0 0 0 0 0 0 0 0 0 0 0 0 0 0 0 0 0 0
0 0 0 0 0 0 0 0 0 0 0 0 0 0 -0 0 0 0 0 0 0 0 -0 -0 0 0 0 0 0 0 0 0 0 0 0 0 0 0 0 0 0 0 0 0
0 0 0 0 0 0 0 0 0 0 0 0 0 0 -0 0 0 0 0 0 0 0 0 -0 0 0 0 0 0 0 0 0 0 0 0 0 0 0 0 0 0 0 0 0
0 0 0 0 0 0 0 0 0 0 0 0 0 0 0 0 -0 0 -0 0 0 0 0 0 -0 -0 -0 0 0 0 0 0 0 0 0 0 0 0 0 0 0 0 0 0
0 0 0 0 0 0 0 0 0 0 0 0 0 0 0 0 -0 -0 -0 0 0 0 0 0 0 0 -0 0 0 0 0 0 0 0 0 0 0 0 0 0 0 0 0 0
0 0 0 0 0 0 0 0 0 0 0 0 0 0 0 0 0 0 0 0 0 0 0 0 0 0 0 0 0 0 0 0 0 0 0 0 0 0 0 0 0 0 0 0
0 0 0 0 0 0 0 0 0 0 0 0 0 0 0 0 -0 0 0 0 0 0 0 0 0 0 0 0 0 0 0 0 0 0 0 0 0 0 0 0 0 0 0 0
0 0 0 0 0 0 0 0 0 0 0 0 0 0 0 -0 0 0 0 0 0 0 0 0 0 0 0 0 0 0 0 0 0 0 0 0 0 0 0 0 0 0 0 0
0 0 0 0 0 0 0 0 0 0 0 0 0 0 0 0 -0 0 0 0 0 0 0 0 0 0 0 0 0 0 0 0 0 0 0 0 0 0 0 0 0 0 0 0
0 0 0 0 0 0 0 0 0 0 0 0 0 0 0 0 0 0 0 0 0 0 0 0 0 0 0 0 0 0 0 0 0 0 0 0 0 0 0 0 0 0 0 0
0 0 0 0 0 0 0 0 0 0 0 0 0 0 0 0 0 0 0 0 0 0 0 0 0 0 0 0 0 0 0 0 0 0 0 0 0 0 0 0 0 0 0 0
0 0 0 0 0 0 0 0 0 0 0 0 0 0 0 0 0 0 0 0 0 0 0 0 0 0 0 0 0 0 0 0 0 0 0 0 0 0 0 0 0 0 0 0
0 0 0 0 0 0 0 0 0 0 0 0 0 0 0 0 0 0 0 0 0 0 -0 -0 0 0 0 0 0 0 0 0 0 0 0 0 0 0 0 0 0 0 0 0
0 0 0 0 0 0 0 0 0 0 0 0 0 0 0 0 0 0 0 0 0 0 0 0 0 0 0 0 0 0 0 0 0 0 0 0 0 0 0 0 0 0 0 0
0 0 0 0 0 0 -0 0 0 0 0 0 0 0 0 0 0 0 0 0 0 0 0 0 0 0 0 0 0 0 0 0 0 0 0 0 0 0 0 0 0 0 0 0
0 0 0 0 0 0 0 0 0 0 0 0 0 0 0 0 0 0 0 0 0 0 0 0 0 0 0 0 0 0 0 0 0 0 0 0 0 0 0 0 0 0 0 0
0 0 0 0 0 0 -0 0 0 0 0 0 0 0 0 0 0 0 0 0 0 0 0 0 0 0 0 0 0 0 0 0 0 0 0 0 0 0 0 0 0 0 0 0
0 0 0 0 0 0 0 0 0 0 0 -0 0 0 0 0 0 0 0 0 0 0 0 0 0 0 0 0 0 0 0 0 0 0 0 0 0 0 0 0 0 0 0 0
0 0 0 0 0 0 0 0 0 0 0 0 0 0 0 0 0 0 0 0 0 0 0 0 0 0 0 0 0 0 0 0 0 0 0 0 0 0 0 0 0 0 0 0
0 0 0 0 0 0 0 0 0 0 0 0 0 0 0 0 0 0 0 0 0 0 0 0 0 0 0 0 0 0 0 0 0 0 0 0 0 0 0 0 0 0 0 0
0 0 0 0 0 0 0 0 0 0 -0 0 0 0 0 0 0 0 0 0 0 0 0 0 0 0 0 0 0 0 0 0 0 0 0 0 0 0 0 0 0 0 0 0
0 0 0 0 0 0 0 0 0 0 0 0 0 0 0 0 0 0 0 0 0 0 0 0 0 0 0 0 0 0 0 0 0 0 0 0 0 0 0 0 0 0 0 0
0 0 0 0 0 0 0 0 0 0 0 0 0 0 0 0 0 0 0 0 0 0 0 0 0 0 0 0 0 0 0 0 0 0 0 0 0 0 0 0 0 0 0 0
Wind_Speed_500mb
36 20 31 35 28 7 21 13 20 8 5 7 26 33 34 38 25 28 38 36 41 50 42 45 49 49 50 54 58 60 60 57 59 60 59 57 53 49 49 47 49 48 44 41
18 40 28 31 27 11 6 8 15 10 3 10 24 35 33 40 43 42 40 42 44 47 47 48 53 55 57 56 58 63 64 63 66 67 64 61 56 55 49 46 45 42 45 47
37 26 40 31 33 28 12 17 13 12 1 10 15 31 35 27 47 40 44 45 40 48 55 53 56 60 59 61 63 63 64 67 68 67 66 67 66 65 59 58 54 50 49 48
21 27 43 37 40 41 25 23 21 11 8 13 5 16 16 12 32 30 51 56 60 60 58 60 64 66 65 65 66 68 69 68 66 65 72 77 70 71 62 60 54 52 50 50
24 35 40 39 45 39 13 22 18 7 12 9 18 14 7 7 19 34 51 58 68 66 71 67 67 64 62 65 70 72 72 71 70 72 75 71 75 71 64 62 58 54 50 50
7 7 28 30 22 36 32 22 11 4 4 18 29 20 17 20 30 32 44 59 69 83 76 75 76 72 67 69 68 70 73 78 77 74 73 77 74 71 72 67 62 55 49 48
11 16 8 21 28 17 20 32 8 10 12 15 3 13 27 14 31 29 29 33 41 53 72 89 86 77 72 70 73 74 77 83 80 75 75 74 74 72 72 68 62 58 56 50
31 19 31 20 20 24 42 36 13 18 13 7 4 18 9 20 44 44 36 35 34 26 45 57 51 54 58 62 72 78 81 83 80 77 73 71 69 71 71 68 64 59 58 54
32 16 14 15 11 31 33 32 11 11 5 2 12 10 20 33 30 22 31 32 42 39 36 31 30 32 44 52 57 66 75 78 77 74 69 67 64 64 66 63 59 57 58 56
18 13 15 9 14 3 30 25 15 7 11 12 10 10 18 10 24 15 17 25 37 40 45 49 40 35 35 37 42 44 49 55 58 62 59 56 56 57 59 58 58 55 53 51
27 11 13 15 24 35 17 29 12 14 8 7 4 7 16 26 13 12 19 27 25 31 31 41 40 29 26 25 24 25 28 34 41 45 48 50 51 51 50 52 53 52 48 45
9 10 16 44 8 7 26 27 27 13 13 7 2 11 7 14 13 8 18 15 8 16 22 31 34 29 24 24 24 24 26 28 32 34 35 35 37 42 44 48 49 48 49 48
19 6 13 11 10 3 32 20 43 18 3 14 10 10 10 3 10 13 11 11 8 11 19 30 32 29 25 25 26 27 29 31 30 31 32 35 39 42 42 42 43 46 46 44
25 7 11 21 13 17 17 26 27 26 9 11 31 30 2 6 13 6 11 11 10 13 19 25 29 27 27 27 28 29 29 28 26 25 27 29 30 32 33 35 38 39 40 42
21 13 6 5 11 20 14 24 22 29 51 24 63 35 31 21 7 5 7 9 11 14 22 28 30 29 28 30 29 31 30 29 28 29 32 34 36 38 39 39 37 38 40 40
5 8 19 4 5 7 10 29 44 54 45 52 53 56 1 26 38 24 33 26 23 14 19 27 32 33 34 31 35 36 35 32 32 35 35 38 42 42 42 40 39 39 37 39
16 10 9 32 10 11 7 54 44 45 52 52 49 34 25 17 23 48 54 59 52 42 33 30 32 39 34 34 41 41 37 39 42 40 39 41 41 40 41 41 42 41 42 42
26 15 6 8 11 18 26 38 49 50 45 58 60 27 19 36 49 51 60 65 69 59 39 39 43 49 40 37 42 47 47 47 43 41 42 41 43 43 42 46 46 46 48 46
32 19 10 14 21 16 39 15 30 28 56 43 48 41 47 31 30 45 64 70 75 78 78 78 55 49 51 47 49 49 50 46 49 49 47 44 45 47 49 50 50 51 51 51
13 24 8 10 28 33 15 20 23 15 47 33 42 35 29 34 24 37 67 93 102 92 87 85 75 56 46 42 49 50 50 52 54 55 53 52 51 51 50 48 50 52 51 50
19 15 37 15 20 23 4 22 53 24 18 30 56 60 50 25 46 51 49 69 77 79 71 58 59 58 50 48 50 51 52 57 53 55 56 55 55 53 49 48 52 54 53 52
26 25 18 16 22 40 14 18 44 15 19 9 1 34 36 56 52 38 34 34 33 34 35 36 36 36 38 40 41 44 49 48 50 54 55 57 58 56 56 54 52 55 54 54
18 17 14 22 22 4 36 14 35 25 17 29 28 25 24 24 31 36 30 32 33 31 28 22 25 31 30 31 32 34 35 38 43 48 53 54 57 58 56 55 56 55 56 56
7 7 9 7 10 9 22 36 31 38 28 28 25 23 23 20 18 20 20 17 15 16 17 16 18 22 23 26 29 31 31 31 33 35 40 44 50 53 53 52 52 53 55 58
8 23 18 4 2 3 24 48 46 31 32 25 31 33 29 27 26 21 18 16 15 11 8 7 8 9 10 11 13 15 17 19 19 22 27 33 39 43 45 47 48 49 50 50
2 1 17 14 16 12 3 57 51 37 32 30 28 27 27 26 23 19 18 17 17 17 13 10 8 7 8 7 8 7 8 10 12 12 16 22 27 32 37 40 44 48 51 51
Wind_Direction_500mb
183 183 194 174 181 187 184 161 240 224 187 223 237 252 253 249 233 244 239 223 223 229 230 227 224 220 217 215 217 220 222 224 227 227 229 232 236 238 239 242 247 245 244 243
172 213 193 180 180 141 135 124 242 271 174 221 264 261 259 251 239 236 238 236 231 230 229 227 225 222 221 219 220 223 226 225 229 232 235 238 242 245 247 250 250 245 245 242
186 184 162 165 182 184 195 195 212 259 158 236 287 272 250 241 233 236 240 241 241 236 233 228 229 229 228 226 226 227 230 230 234 236 239 241 243 245 244 244 245 245 249 248
195 171 168 170 182 184 190 197 218 214 229 253 246 281 245 265 236 220 233 234 238 239 239 236 234 230 230 233 233 234 234 235 238 238 239 241 243 246 251 251 252 252 252 252
177 166 172 185 186 185 192 167 185 176 242 280 228 263 247 262 257 239 230 232 236 238 241 240 238 235 235 237 237 237 238 238 239 239 241 244 245 249 251 252 255 252 252 251
116 173 179 189 170 183 137 120 96 123 260 257 245 230 252 241 248 250 240 236 235 239 240 245 247 248 246 244 242 239 238 238 238 240 242 243 245 247 249 249 251 250 249 250
153 169 115 149 139 168 180 162 156 221 218 247 88 240 256 245 249 235 250 247 238 237 236 241 246 249 250 248 245 240 237 237 239 240 241 243 244 245 247 251 252 251 251 249
172 198 180 172 189 173 187 179 184 188 199 200 140 239 234 249 254 262 264 264 258 255 244 241 246 248 249 247 244 241 239 238 237 238 237 242 240 239 243 246 249 251 251 249
181 172 164 181 146 156 182 209 161 105 22 223 211 252 261 254 261 268 266 261 255 241 238 225 232 249 244 240 239 238 238 239 238 238 238 240 238 236 238 242 244 245 245 245
183 128 188 136 120 166 188 150 187 229 192 228 212 251 234 207 233 265 270 254 258 245 237 232 243 249 246 238 236 233 231 234 238 236 237 238 237 238 239 238 241 243 244 242
169 117 156 158 202 181 159 192 192 189 221 237 259 227 219 234 170 271 291 267 288 227 234 225 220 227 228 222 219 220 222 221 223 226 230 233 234 234 233 236 240 241 241 238
150 106 154 190 52 257 197 195 191 190 194 255 17 256 176 213 204 271 315 298 271 225 215 202 196 200 202 202 204 205 207 209 213 215 219 224 227 229 231 237 243 243 240 234
170 125 115 151 231 211 205 190 205 204 86 198 185 244 44 180 225 278 283 292 270 215 200 192 199 205 204 202 201 203 205 209 211 213 217 222 228 233 236 236 235 234 234 233
146 133 150 187 204 133 191 199 202 202 225 186 235 236 350 214 235 235 229 249 247 225 212 209 209 209 207 202 200 200 199 204 206 211 217 223 229 231 232 230 229 229 228 225
174 161 106 91 160 163 160 181 178 197 226 210 246 243 232 251 243 225 237 210 211 232 222 214 214 211 210 211 208 209 208 211 214 223 231 235 237 238 237 235 233 229 219 213
246 175 175 92 95 135 163 185 193 210 216 231 248 257 101 239 231 232 229 230 230 247 255 237 223 215 213 216 222 218 212 216 224 231 237 239 240 240 239 238 232 222 212 209
167 119 135 217 141 98 287 212 204 217 219 227 236 239 191 208 222 237 249 254 253 250 270 248 229 215 211 227 231 217 215 226 229 231 237 241 238 237 236 231 224 218 215 217
155 139 123 138 139 214 260 184 212 221 227 226 244 236 227 222 227 238 242 258 267 275 261 243 241 232 231 247 243 226 225 230 237 241 241 240 236 233 230 229 223 219 219 220
188 160 151 169 204 283 272 197 199 198 244 231 239 242 238 242 257 255 244 249 258 261 266 269 265 255 252 258 240 234 232 237 239 240 240 241 238 233 230 227 224 221 216 214
146 192 152 164 212 227 301 168 141 97 265 217 222 231 216 193 239 247 241 246 249 253 253 260 269 266 253 241 233 237 237 239 242 241 241 239 235 233 232 228 223 221 217 216
169 177 207 193 223 252 240 137 148 186 252 214 215 222 211 202 229 256 250 240 247 253 248 254 264 268 264 255 252 251 247 247 249 246 244 240 237 234 231 229 229 218 216 216
172 173 198 200 225 250 129 152 186 218 208 203 226 219 214 229 240 247 245 242 238 248 247 244 254 257 258 260 259 255 253 251 244 241 238 236 234 230 229 227 222 218 219 222
191 197 167 197 215 77 181 197 205 202 218 217 219 240 232 241 237 231 225 239 253 257 249 243 244 254 249 249 254 252 250 246 244 239 234 229 227 228 228 225 222 222 224 225
242 160 187 133 206 202 201 220 217 223 248 249 232 211 181 182 184 185 197 194 215 220 231 234 235 231 236 242 244 246 246 245 241 237 234 229 226 225 223 222 223 227 227 226
184 158 177 249 202 204 241 221 227 228 239 227 210 198 176 178 174 181 172 169 178 171 171 180 201 193 201 214 224 228 226 223 225 226 222 219 217 219 222 224 228 234 237 238
293 121 186 215 186 205 235 227 229 219 196 187 185 176 161 169 171 173 166 154 152 137 138 135 135 142 148 164 183 191 197 201 186 194 204 209 217 222 226 231 234 234 234 233
Wind_Speed_850mb
36 20 31 35 28 7 21 13 20 8 5 7 26 33 34 38 25 28 38 36 41 50 42 45 49 49 50 54 58 60 60 57 59 60 59 57 53 49 49 47 49 48 44 41
18 40 28 31 27 11 6 8 15 10 3 10 24 35 33 40 43 42 40 42 44 47 47 48 53 55 57 56 58 63 64 63 66 67 64 61 56 55 49 46 45 42 45 47
37 26 40 31 33 28 12 17 13 12 1 10 15 31 35 27 47 40 44 45 40 48 55 53 56 60 59 61 63 63 64 67 68 67 66 67 66 65 59 58 54 50 49 48
21 27 43 37 40 41 25 23 21 11 8 13 5 16 16 12 32 30 51 56 60 60 58 60 64 66 65 65 66 68 69 68 66 65 72 77 70 71 62 60 54 52 50 50
24 35 40 39 45 39 13 22 18 7 12 9 18 14 7 7 19 34 51 58 68 66 71 67 67 64 62 65 70 72 72 71 70 72 75 71 75 71 64 62 58 54 50 50
7 7 28 30 22 36 32 22 11 4 4 18 29 20 17 20 30 32 44 59 69 83 76 75 76 72 67 69 68 70 73 78 77 74 73 77 74 71 72 67 62 55 49 48
11 16 8 21 28 17 20 32 8 10 12 15 3 13 27 14 31 29 29 33 41 53 72 89 86 77 72 70 73 74 77 83 80 75 75 74 74 72 72 68 62 58 56 50
31 19 31 20 20 24 42 36 13 18 13 7 4 18 9 20 44 44 36 35 34 26 45 57 51 54 58 62 72 78 81 83 80 77 73 71 69 71 71 68 64 59 58 54
32 16 14 15 11 31 33 32 11 11 5 2 12 10 20 33 30 22 31 32 42 39 36 31 30 32 44 52 57 66 75 78 77 74 69 67 64 64 66 63 59 57 58 56
18 13 15 9 14 3 30 25 15 7 11 12 10 10 18 10 24 15 17 25 37 40 45 49 40 35 35 37 42 44 49 55 58 62 59 56 56 57 59 58 58 55 53 51
27 11 13 15 24 35 17 29 12 14 8 7 4 7 16 26 13 12 19 27 25 31 31 41 40 29 26 25 24 25 28 34 41 45 48 50 51 51 50 52 53 52 48 45
9 10 16 44 8 7 26 27 27 13 13 7 2 11 7 14 13 8 18 15 8 16 22 31 34 29 24 24 24 24 26 28 32 34 35 35 37 42 44 48 49 48 49 48
19 6 13 11 10 3 32 20 43 18 3 14 10 10 10 3 10 13 11 11 8 11 19 30 32 29 25 25 26 27 29 31 30 31 32 35 39 42 42 42 43 46 46 44
25 7 11 21 13 17 17 26 27 26 9 11 31 30 2 6 13 6 11 11 10 13 19 25 29 27 27 27 28 29 29 28 26 25 27 29 30 32 33 35 38 39 40 42
21 13 6 5 11 20 14 24 22 29 51 24 63 35 31 21 7 5 7 9 11 14 22 28 30 29 28 30 29 31 30 29 28 29 32 34 36 38 39 39 37 38 40 40
5 8 19 4 5 7 10 29 44 54 45 52 53 56 1 26 38 24 33 26 23 14 19 27 32 33 34 31 35 36 35 32 32 35 35 38 42 42 42 40 39 39 37 39
16 10 9 32 10 11 7 54 44 45 52 52 49 34 25 17 23 48 54 59 52 42 33 30 32 39 34 34 41 41 37 39 42 40 39 41 41 40 41 41 42 41 42 42
26 15 6 8 11 18 26 38 49 50 45 58 60 27 19 36 49 51 60 65 69 59 39 39 43 49 40 37 42 47 47 47 43 41 42 41 43 43 42 46 46 46 48 46
32 19 10 14 21 16 39 15 30 28 56 43 48 41 47 31 30 45 64 70 75 78 78 78 55 49 51 47 49 49 50 46 49 49 47 44 45 47 49 50 50 51 51 51
13 24 8 10 28 33 15 20 23 15 47 33 42 35 29 34 24 37 67 93 102 92 87 85 75 56 46 42 49 50 50 52 54 55 53 52 51 51 50 48 50 52 51 50
19 15 37 15 20 23 4 22 53 24 18 30 56 60 50 25 46 51 49 69 77 79 71 58 59 58 50 48 50 51 52 57 53 55 56 55 55 53 49 48 52 54 53 52
26 25 18 16 22 40 14 18 44 15 19 9 1 34 36 56 52 38 34 34 33 34 35 36 36 36 38 40 41 44 49 48 50 54 55 57 58 56 56 54 52 55 54 54
18 17 14 22 22 4 36 14 35 25 17 29 28 25 24 24 31 36 30 32 33 31 28 22 25 31 30 31 32 34 35 38 43 48 53 54 57 58 56 55 56 55 56 56
7 7 9 7 10 9 22 36 31 38 28 28 25 23 23 20 18 20 20 17 15 16 17 16 18 22 23 26 29 31 31 31 33 35 40 44 50 53 53 52 52 53 55 58
8 23 18 4 2 3 24 48 46 31 32 25 31 33 29 27 26 21 18 16 15 11 8 7 8 9 10 11 13 15 17 19 19 22 27 33 39 43 45 47 48 49 50 50
2 1 17 14 16 12 3 57 51 37 32 30 28 27 27 26 23 19 18 17 17 17 13 10 8 7 8 7 8 7 8 10 12 12 16 22 27 32 37 40 44 48 51 51
Wind_Direction_850mb
183 183 194 174 181 187 184 161 240 224 187 223 237 252 253 249 233 244 239 223 223 229 230 227 224 220 217 215 217 220 222 224 227 227 229 232 236 238 239 242 247 245 244 243
172 213 193 180 180 141 135 124 242 271 174 221 264 261 259 251 239 236 238 236 231 230 229 227 225 222 221 219 220 223 226 225 229 232 235 238 242 245 247 250 250 245 245 242
186 184 162 165 182 184 195 195 212 259 158 236 287 272 250 241 233 236 240 241 241 236 233 228 229 229 228 226 226 227 230 230 234 236 239 241 243 245 244 244 245 245 249 248
195 171 168 170 182 184 190 197 218 214 229 253 246 281 245 265 236 220 233 234 238 239 239 236 234 230 230 233 233 234 234 235 238 238 239 241 243 246 251 251 252 252 252 252
177 166 172 185 186 185 192 167 185 176 242 280 228 263 247 262 257 239 230 232 236 238 241 240 238 235 235 237 237 237 238 238 239 239 241 244 245 249 251 252 255 252 252 251
116 173 179 189 170 183 137 120 96 123 260 257 245 230 252 241 248 250 240 236 235 239 240 245 247 248 246 244 242 239 238 238 238 240 242 243 245 247 249 249 251 250 249 250
153 169 115 149 139 168 180 162 156 221 218 247 88 240 256 245 249 235 250 247 238 237 236 241 246 249 250 248 245 240 237 237 239 240 241 243 244 245 247 251 252 251 251 249
172 198 180 172 189 173 187 179 184 188 199 200 140 239 234 249 254 262 264 264 258 255 244 241 246 248 249 247 244 241 239 238 237 238 237 242 240 239 243 246 249 251 251 249
181 172 164 181 146 156 182 209 161 105 22 223 211 252 261 254 261 268 266 261 255 241 238 225 232 249 244 240 239 238 238 239 238 238 238 240 238 236 238 242 244 245 245 245
183 128 188 136 120 166 188 150 187 229 192 228 212 251 234 207 233 265 270 254 258 245 237 232 243 249 246 238 236 233 231 234 238 236 237 238 237 238 239 238 241 243 244 242
169 117 156 158 202 181 159 192 192 189 221 237 259 227 219 234 170 271 291 267 288 227 234 225 220 227 228 222 219 220 222 221 223 226 230 233 234 234 233 236 240 241 241 238
150 106 154 190 52 257 197 195 191 190 194 255 17 256 176 213 204 271 315 298 271 225 215 202 196 200 202 202 204 205 207 209 213 215 219 224 227 229 231 237 243 243 240 234
170 125 115 151 231 211 205 190 205 204 86 198 185 244 44 180 225 278 283 292 270 215 200 192 199 205 204 202 201 203 205 209 211 213 217 222 228 233 236 236 235 234 234 233
146 133 150 187 204 133 191 199 202 202 225 186 235 236 350 214 235 235 229 249 247 225 212 209 209 209 207 202 200 200 199 204 206 211 217 223 229 231 232 230 229 229 228 225
174 161 106 91 160 163 160 181 178 197 226 210 246 243 232 251 243 225 237 210 211 232 222 214 214 211 210 211 208 209 208 211 214 223 231 235 237 238 237 235 233 229 219 213
246 175 175 92 95 135 163 185 193 210 216 231 248 257 101 239 231 232 229 230 230 247 255 237 223 215 213 216 222 218 212 216 224 231 237 239 240 240 239 238 232 222 212 209
167 119 135 217 141 98 287 212 204 217 219 227 236 239 191 208 222 237 249 254 253 250 270 248 229 215 211 227 231 217 215 226 229 231 237 241 238 237 236 231 224 218 215 217
155 139 123 138 139 214 260 184 212 221 227 226 244 236 227 222 227 238 242 258 267 275 261 243 241 232 231 247 243 226 225 230 237 241 241 240 236 233 230 229 223 219 219 220
188 160 151 169 204 283 272 197 199 198 244 231 239 242 238 242 257 255 244 249 258 261 266 269 265 255 252 258 240 234 232 237 239 240 240 241 238 233 230 227 224 221 216 214
146 192 152 164 212 227 301 168 141 97 265 217 222 231 216 193 239 247 241 246 249 253 253 260 269 266 253 241 233 237 237 239 242 241 241 239 235 233 232 228 223 221 217 216
169 177 207 193 223 252 240 137 148 186 252 214 215 222 211 202 229 256 250 240 247 253 248 254 264 268 264 255 252 251 247 247 249 246 244 240 237 234 231 229 229 218 216 216
172 173 198 200 225 250 129 152 186 218 208 203 226 219 214 229 240 247 245 242 238 248 247 244 254 257 258 260 259 255 253 251 244 241 238 236 234 230 229 227 222 218 219 222
191 197 167 197 215 77 181 197 205 202 218 217 219 240 232 241 237 231 225 239 253 257 249 243 244 254 249 249 254 252 250 246 244 239 234 229 227 228 228 225 222 222 224 225
242 160 187 133 206 202 201 220 217 223 248 249 232 211 181 182 184 185 197 194 215 220 231 234 235 231 236 242 244 246 246 245 241 237 234 229 226 225 223 222 223 227 227 226
184 158 177 249 202 204 241 221 227 228 239 227 210 198 176 178 174 181 172 169 178 171 171 180 201 193 201 214 224 228 226 223 225 226 222 219 217 219 222 224 228 234 237 238
293 121 186 215 186 205 235 227 229 219 196 187 185 176 161 169 171 173 166 154 152 137 138 135 135 142 148 164 183 191 197 201 186 194 204 209 217 222 226 231 234 234 234 233